Location: Unspecified
(49.2170°N, 0.0000°E)
Time: 00:02:24
(UTC+00:00)

Explorer 7 - Pass Details

Date: 22 January 2021
Orbit: 484 x 677 km, 50.3° (Epoch: 06 March)

Event Time Altitude Azimuth Distance (km) Brightness Sun altitude
Exits shadow 06:01:27 18° 226° (SW) 1,323 8.4 -16.3°
Maximum altitude 06:04:12 52° 154° (SSE) 652 7.4 -15.9°
Drops below altitude 10° 06:08:12 10° 78° (ENE) 1,818 10.5 -15.3°
Sets 06:10:33 0° 73° (ENE) 2,749 11.5 -14.9°
